NOAA 16 DEB, 41296

Orbit data source: Space-Track

NOAA 16 DEB, 41296 is space debris in SSO originally from a launch on Thu, 21 Sep 2000 UTC launched from the Air Force Western Test Range (AFWTR). Debris objects in space refer to the collection of defunct objects orbiting the Earth. Examples of debris include non-operational satellites, rocket bodies, and fragments generated from explosions, collisions, or faulty payload assembly.

Loading next visibility...
Identifier
41296, 2000-055GY
Orbit
SSO
Country
Flag of USUS
Related business
Manufacturer
Unknown
Mission
Spacecraft
Bus & Motor
Unknown
Mass
Unknown
Launch date (UTC)
2000-09-21 (26 years ago)
Launch vehicle
Unknown
Launch site
Air Force Western Test Range (AFWTR)
Object type
Payload
Rocket body
Debris
Shape & HBR
Unknown shape, 0.1 m
Radar Cross Section
Medium (>0.1 m² and <1 m²)

Expand to show TLE details & history
Last TLE update: 13 hours ago

TLE from 13 hours ago
0 NOAA 16 DEB
1 41296U 00055GY  26236.37969414  .00001775  00000-0  83756-3 0  9996
2 41296  98.7112 292.7639 0023428 331.3327  28.6560 14.20941926548632
Epoch: 2026-08-24T09:06Z
TLE epoch observation values (Epoch: 2026-08-24T09:06:45.573Z)
Latitude
-0.0001°
Longitude
-176.58821°
Altitude
810.288 km
Speed
7.456 km/s
True Right ascension
19h 31m 03s
True Declination
0° 00' 00"
Sunlit
Object was in full shadow at epoch
Visualization orbit readout
Latitude
Unknown
Longitude
Unknown
Altitude
Unknown
Speed
Unknown
Apparent Right ascension
Unknown
Apparent Declination
Unknown
Sunlit
N/A
Visualization observer readout
Local Sidereal Time
13:02:33
Azimuth
Unknown
Elevation
Unknown
Doppler factor
Unknown
Orbital elements
Apogee altitude
836.189 km
Perigee altitude
802.464 km
Semi-major axis
7,197.463 km
Eccentricity
0.00234
Inclination
98.7112°
RAAN
292.7639°
Arg. of periapsis
331.3327°
True anomaly
28.78507°
Mean anomaly
28.656°
Eccentric anomaly
28.7205°
Mean motion
3.55446 °/min
Orbital period
101.28 mins
BSTAR
0.00083756
Loading maneuver chart data...
Computing Atmospheric mass density...
Loading historical data...
Loading historical data...
Loading historical data...
Loading historical data...
Loading historical data...
Loading historical data...
Loading historical data...

Documentation

Showing up to 5 results
|